Location: La Brécinière
(48.1333°N, 1.0500°W)
Time: 10:20:54
(UTC+00:00)

Daily predictions for brighter satellites

Satellite Brightness Start Highest point End
(mag) Time Altitude Azimuth Time Altitude Azimuth Time Altitude Azimuth
ATLAS 2AS CENTAUR R/B 4.3 18:42:31 10° W 18:49:01 35° NNW 18:55:19 10° NE
Landsat 7 4.2 18:45:03 10° S 18:49:43 70° WSW 18:54:26 10° NNW
Cosmos 1842 3.9 18:48:44 10° N 18:51:59 30° ENE 18:55:13 10° SE
USA 59 Rocket 0.0 18:49:29 10° NW 18:53:13 73° NE 18:58:24 10° SE
Cosmos 1536 4.1 18:51:17 10° SE 18:53:59 19° E 18:56:42 10° NE
Cosmos 2061 Rocket 4.1 18:48:38 10° S 18:55:04 87° E 19:01:33 10° N
COSMOS 2428 2.8 18:49:36 10° S 18:55:10 56° ESE 19:00:47 10° NE
Cosmos 1707 3.5 18:52:41 10° NNE 18:55:46 27° ENE 18:58:51 10° SE
Cosmos 1818 3.7 18:54:44 10° SW 19:00:12 82° NW 19:05:44 10° NE
Okean O Rocket 3.1 18:58:07 10° ESE 19:01:23 21° ENE 19:04:39 10° NNE
Cosmos 1626 4.4 19:01:08 10° NW 19:03:36 23° W 19:06:02 10° SSW
Meteor 2-4 Rocket 4.5 19:00:22 10° NNW 19:06:14 61° W 19:11:58 10° S
Cosmos 2278 Rocket 2.4 19:00:44 10° NNW 19:06:20 57° ENE 19:11:54 10° SE
USA 306 2.2 19:03:56 10° WSW 19:06:56 84° NNW 19:10:32 10° ENE
DMSP B5D1-3 4.5 19:03:13 10° NNE 19:08:19 78° ESE 19:13:23 10° S
Tsikada Rocket 4.5 19:02:39 10° NNW 19:08:54 68° W 19:15:12 10° S
CZ-4B DEB 4.2 19:03:36 10° SSE 19:09:05 70° ENE 19:14:33 10° N
CZ-4 R/B 1.4 19:06:21 10° SSE 19:10:04 53° ENE 19:13:53 10° N
NOSS 2-1 (C) 3.7 19:09:48 10° NW 19:13:34 76° SW 19:18:45 10° SE
CZ-4B R/B 3.5 19:08:28 10° SE 19:13:37 45° ENE 19:18:43 10° N
Cosmos 1766 Rocket 3.5 19:09:36 10° S 19:13:55 66° E 19:18:17 10° NNE
TSX-5 4.3 19:12:33 10° NW 19:15:33 44° WSW 19:18:41 10° S
Resurs 01 Rocket 2.0 19:11:27 10° SE 19:15:39 44° ENE 19:19:52 10° N
Meteor 2-17 Rocket 4.5 19:10:03 10° N 19:16:02 59° ENE 19:22:01 10° SSE
USA 290 2.2 19:13:35 10° NNW 19:16:54 68° ENE 19:20:10 10° SSE
Helios 1A 2.9 19:12:58 10° NNE 19:17:00 59° ESE 19:20:59 10° S
YAOGAN 1 4.1 19:14:03 10° SSW 19:18:04 39° W 19:22:06 10° NNW
ADEOS 3.7 19:13:01 10° SSE 19:18:14 83° WSW 19:23:30 10° NNW
GEOS 3 Rocket 3.6 19:13:56 10° SE 19:19:09 79° NE 19:24:21 10° NW
USA 186 2.1 19:17:49 10° SE 19:20:53 44° ENE 19:24:00 10° N
CZ-4B R/B 3.5 19:16:21 10° S 19:21:05 77° WSW 19:25:55 10° NNW
Cosmos 1814 Rocket 4.0 19:16:14 10° SSW 19:21:32 78° ESE 19:26:47 10° NNE
Cosmos 2360 Rocket 4.3 19:16:47 10° WSW 19:21:42 30° NW 19:26:37 10° NNE
PAYLOAD B 4.3 19:16:38 10° SSE 19:22:12 70° ENE 19:27:48 10° N
Cosmos 1743 3.7 19:19:02 10° SSW 19:22:29 47° WNW 19:25:57 10° N
KORONAS-FOTON 3.6 19:19:16 10° N 19:22:59 76° E 19:26:39 10° SSE
SPOT 5 4.2 19:22:14 15° E 19:24:23 20° ENE 19:27:36 10° NNE
Okean-O 4.1 19:23:05 15° E 19:25:09 21° ENE 19:28:26 10° NNE
SKYMED 3 4.4 19:23:46 10° NNE 19:27:55 90° WNW 19:32:01 10° SSW
Cosmos 1408 Rocket 4.4 19:24:19 10° SSE 19:28:07 30° E 19:31:57 10° NNE
USA 267 4.2 19:22:19 10° ENE 19:28:21 41° N 19:34:24 10° WNW
ISS -3.3 19:25:34 10° SW 19:28:45 40° SSE 19:30:43 19° E
NOSS 3-3 (A) 4.5 19:24:53 10° S 19:29:23 28° ESE 19:34:26 10° ENE
SPOT 1/Viking Rocket 3.9 19:24:14 10° S 19:29:23 71° WSW 19:34:34 10° NNW
CZ-4B R/B 2.8 19:26:14 10° SSE 19:30:05 86° ENE 19:34:11 10° NNW
Kosmos-1783 4.0 19:29:26 10° WSW 19:31:30 31° NW 19:33:04 10° NNE
SL-08 R/B 3.6 19:28:40 10° NNE 19:33:36 76° WNW 19:38:30 10° SSW
Cosmos 2237 Rocket 2.4 19:28:52 10° S 19:34:12 47° ESE 19:39:35 10° NE
Aureole 3 Rocket 4.4 19:31:07 10° SSE 19:37:04 33° E 19:41:34 10° NNE
CSL-04 Rocket 3.7 19:32:06 10° SSE 19:37:22 62° ENE 19:42:37 10° N
Cosmos 2219 Rocket 3.8 19:33:43 10° WSW 19:38:58 37° NW 19:44:14 10° NNE
Cosmos 1674 3.8 19:37:31 10° NNW 19:40:39 38° W 19:43:44 10° SSW
Cosmos 1328 Rocket 4.3 19:37:04 10° NNW 19:41:15 54° W 19:45:26 10° S
Cosmos 1356 Rocket 3.4 19:38:46 10° NNW 19:42:58 86° W 19:47:09 10° S
Meteor 1-14 Rocket 4.2 19:37:31 10° S 19:43:03 88° W 19:48:38 10° NNE
Aureole 1 4.3 19:40:54 10° NNW 19:44:01 90° ENE 19:46:29 19° SSE
Lacrosse 4 Rocket 3.9 19:41:16 10° WNW 19:44:34 22° WSW 19:47:51 10° SSW
SJ-6B 4.0 19:42:23 10° SSW 19:45:48 39° W 19:49:13 10° NNW
Meteor 1-4 Rocket 3.3 19:43:28 10° NNW 19:45:58 36° W 19:48:27 10° SSW
Meteor 1-11 Rocket 3.8 19:40:40 10° S 19:46:06 53° E 19:51:29 10° NNE
CARTOSAT-1 3.5 19:46:21 10° SSE 19:50:36 84° WSW 19:54:52 10° NNW
ATLAS CENTAUR R/B 1.2 19:47:43 10° SSW 19:51:07 45° ESE 19:54:41 10° NE
Cosmos 158 Rocket 4.0 19:46:33 10° S 19:51:12 48° ESE 19:55:53 10° NNE
Cosmos 1805 Rocket 4.1 19:52:47 28° SE 19:54:12 35° E 19:58:09 10° NNE
Cosmos 1733 2.8 19:54:58 10° S 19:58:23 86° E 20:01:51 10° N
USA 276 2.4 19:57:45 10° W 20:00:28 42° SSW 20:00:38 41° SSW
In-Cosmos 22 4.2 19:55:08 10° NNW 20:00:53 89° ENE 20:06:00 12° S
Cosmos 2369 Rocket 3.5 19:58:18 10° N 20:03:06 27° NE 20:05:12 22° ENE
Cosmos 1980 3.6 19:58:00 10° SSW 20:03:41 82° ESE 20:09:25 10° NNE
SWARM A 4.2 20:03:48 22° S 20:05:57 86° E 20:09:28 10° N
Sich 1 3.0 20:07:33 31° SSE 20:09:19 54° E 20:13:32 10° NNE
BlueWalker 3 4.2 20:07:50 10° W 20:10:20 17° SW 20:12:13 12° SSW
Cosmos 1943 Rocket 2.3 20:04:57 10° NNW 20:10:28 74° WSW 20:14:05 22° SSE
NOSS 0 Rocket 4.2 20:06:02 10° SW 20:12:15 71° WNW 20:18:31 10° NNE
Terra 2.7 20:13:52 29° ENE 20:14:20 30° ENE 20:18:23 10° N
Cosmos 2298 Rocket 4.0 20:09:04 10° NNW 20:14:21 66° ENE 20:16:27 36° SE
ACS3 Solar Sail 1.8 20:09:36 16° SSE 20:14:50 85° ENE 20:21:18 10° NNW
ERS-1 Rocket 3.6 20:14:03 33° E 20:15:03 37° ENE 20:19:39 10° N
Nadezhda 4 Rocket 4.1 20:09:15 10° N 20:15:33 81° W 20:21:40 11° S
Cosmos 2195 Rocket 4.4 20:09:35 10° N 20:15:42 68° E 20:19:12 27° SSE
Cosmos 2150 Rocket 3.9 20:10:54 10° NNW 20:16:03 68° ENE 20:17:56 38° SE
Cosmos 1570 Rocket 3.9 20:11:08 10° SSW 20:16:25 89° ESE 20:21:43 10° NNE
USA 32 4.0 20:11:42 10° N 20:16:56 68° E 20:19:24 32° SSE
Cosmos 1975 4.0 20:18:58 27° NE 20:18:58 27° NE 20:21:13 10° NNE
Cosmos 1805 2.9 20:21:35 69° E 20:21:35 69° E 20:25:13 10° NNE
Cosmos 1315 Rocket 2.9 20:19:02 10° NNW 20:23:00 71° W 20:24:27 37° S
Cosmos 2026 Rocket 3.9 20:16:49 10° N 20:23:02 66° ENE 20:25:51 33° SSE
Cosmos 1092 Rocket 4.0 20:17:13 10° N 20:23:32 65° ENE 20:26:28 33° SSE
Ariane Rocket 4.0 20:24:21 28° ENE 20:24:41 28° ENE 20:28:59 10° N
Cosmos 836 Rocket 4.4 20:21:41 10° SSW 20:26:56 74° ESE 20:32:14 10° NNE
IRS-1A Rocket 4.5 20:26:27 40° ESE 20:28:14 56° ENE 20:33:48 10° N
Cosmos 1536 4.3 20:26:04 10° SW 20:29:36 36° WNW 20:33:10 10° N
Cosmos 1125 Rocket 4.2 20:27:29 10° NNW 20:32:29 49° WSW 20:35:39 21° S
SL-16 R/B 2.6 20:35:16 42° E 20:35:16 42° E 20:39:59 10° NE
Okean O Rocket 2.3 20:35:02 26° SSW 20:37:17 51° W 20:41:38 10° NNW
Cosmos 1634 Rocket 4.0 20:36:32 37° SSE 20:38:55 61° E 20:45:10 10° NNE
USA 306 3.8 20:36:46 10° WNW 20:39:54 34° N 20:40:35 31° NNE
Cosmos 1656 Rocket 3.8 20:34:44 10° NNW 20:40:19 57° ENE 20:41:19 49° E
SL-14 R/B 3.2 20:36:52 10° NNW 20:40:36 79° W 20:40:36 79° W
USA 59 Rocket 2.6 20:39:47 10° W 20:42:38 17° WSW 20:46:03 10° SSW
PSLV R/B 4.1 20:44:13 51° WSW 20:44:20 51° W 20:47:47 10° NNW
CZ-4 R/B 4.2 20:42:48 10° WSW 20:44:55 14° W 20:47:04 10° NW
IRS-1C Rocket 4.0 20:45:02 58° ESE 20:45:49 67° ENE 20:51:04 10° N
Cosmos 773 Rocket 3.9 20:45:40 50° S 20:46:58 71° ESE 20:52:15 10° NNE
Cosmos 2278 Rocket 4.0 20:45:25 10° NW 20:50:01 26° WSW 20:54:32 10° SSW
Cosmos 1500 Rocket 4.3 20:47:41 19° SSW 20:50:39 52° WNW 20:54:56 10° N
Resurs 01 Rocket 3.9 20:48:50 10° SW 20:52:16 22° W 20:55:42 10° NW
Cosmos 2228 Rocket 3.2 20:51:12 10° N 20:55:20 66° NE 20:55:20 66° NE
Cosmos 1743 Rocket 4.0 20:56:20 45° SW 20:57:22 59° WNW 21:01:40 10° N
MetOp-B 4.2 20:56:16 48° S 20:57:43 72° WSW 21:03:06 10° NNW
CRYOSAT 2 4.5 20:55:17 10° N 21:00:11 74° W 21:01:11 55° SSW
SPOT 3 Rocket 3.8 21:00:55 51° NE 21:00:55 51° NE 21:05:36 10° N
Okean-O 3.3 21:00:31 45° SW 21:01:12 50° W 21:05:30 10° NNW
SPOT 5 3.2 21:01:22 49° SW 21:02:04 55° W 21:06:28 10° NNW
NOSS 3-3 (C) 3.9 20:59:57 10° SW 21:05:24 76° NW 21:11:54 10° NE
ISS -1.5 21:02:11 10° W 21:03:42 24° W 21:03:42 24° W
USA 267 3.7 21:08:22 37° ENE 21:10:41 53° NNE 21:16:59 10° NW
Cosmos 2237 Rocket 3.8 21:13:21 10° WSW 21:18:26 34° NW 21:23:33 10° NNE
NOSS 3-3 (A) 4.2 21:14:15 10° WSW 21:19:40 61° NW 21:26:08 10° NE
Cosmos 2279 Rocket 3.8 21:19:59 76° SSE 21:20:27 82° E 21:26:42 10° N
Cosmos 1607 3.9 21:17:16 10° SW 21:23:45 88° NW 21:30:15 10° NE
MOS 1 Rocket 4.2 21:24:48 44° WSW 21:25:28 47° W 21:30:34 10° NNW
ATLAS CENTAUR R/B 3.4 21:25:41 10° W 21:28:42 24° NW 21:29:51 21° N
Cosmos 2297 3.7 21:23:31 10° NNW 21:28:59 74° W 21:28:59 74° W
Spot 2 Rocket 3.7 21:31:06 65° NW 21:31:06 65° NW 21:35:35 10° NNW
NOSS 3-4 (A) 3.8 21:37:14 10° NW 21:44:05 76° SW 21:44:37 72° SSW
NOSS 3-4 (C) 3.7 21:37:21 10° NW 21:44:12 76° SW 21:44:43 73° SSW
Cosmos 2369 Rocket 2.5 21:41:56 10° NNW 21:46:58 61° WNW 21:46:58 61° WNW
Terra 3.2 21:52:34 35° WNW 21:52:34 35° WNW 21:56:11 10° NNW
ERS-1 Rocket 4.3 21:53:59 33° W 21:53:59 33° W 21:58:21 10° NNW
ACS3 Solar Sail 4.0 21:55:18 10° SW 21:59:39 19° W 22:04:02 10° NW
Ariane Rocket 4.2 22:04:30 39° WNW 22:04:30 39° WNW 22:08:17 10° NNW
Cosmos 2266 Rocket 4.3 22:04:09 10° NNW 22:09:40 65° NW 22:09:40 65° NW
SL-16 R/B 3.5 22:17:00 29° W 22:18:50 36° NW 22:24:04 10° NNE
ATLAS 2AS CENTAUR R/B 4.0 22:29:09 10° NW 22:35:12 31° NNE 22:36:30 29° NE
USA 267 4.0 22:55:43 45° WNW 22:55:43 45° WNW 23:00:06 10° WNW
Cosmos 2344 3.9 23:19:14 10° NW 23:27:14 82° NNE 23:27:14 82° NNE
Cosmos 1980 Rocket 4.0 23:49:04 10° NNW 23:52:13 26° NNE 23:52:13 26° NNE
